When you browse on this site, cookies collect data to enhance your experience and personalize the content and advertising you see.
Visit our Privacy Policy to learn more. By continuing to use the site, you agree to this use of cookies and data.
  • In Latvia
  • List of Countries
  • For 7 days
  • Water Temperature
  • Weather Map
  • Weather Widgets
  • user-avatar
    Login

    Hourly Weather Albany

    Today, 27 January, Monday

    Time Temperature Precipitation Wind Pressure Humidity
    00:00 +16°C° 0 mm 2 mps 758 mmHg 84%
    01:00 +16°C° 0 mm 1 mps 758 mmHg 86%
    02:00 +16°C° 0 mm 1 mps 758 mmHg 86%
    03:00 +16°C° 0 mm 2 mps 757 mmHg 87%
    04:00 +15°C° 0 mm 2 mps 757 mmHg 89%
    05:00 +14°C° 0 mm 3 mps 757 mmHg 90%
    06:00 +18°C° 0 mm 2 mps 757 mmHg 78%
    07:00 +20°C° 0 mm 2 mps 758 mmHg 66%
    08:00 +24°C° 0 mm 1 mps 758 mmHg 51%
    09:00 +27°C° 0 mm 1 mps 758 mmHg 46%
    10:00 +29°C° 0 mm 2 mps 758 mmHg 41%
    11:00 +32°C° 0 mm 2 mps 757 mmHg 36%
    12:00 +30°C° 0 mm 3 mps 757 mmHg 41%
    13:00 +29°C° 0 mm 4 mps 756 mmHg 46%
    14:00 +28°C° 0 mm 5 mps 756 mmHg 50%
    15:00 +27°C° 0 mm 5 mps 756 mmHg 53%
    16:00 +26°C° 0 mm 4 mps 755 mmHg 55%
    17:00 +26°C° 0 mm 4 mps 755 mmHg 58%
    18:00 +23°C° 0 mm 4 mps 756 mmHg 67%
    19:00 +21°C° 0 mm 3 mps 756 mmHg 76%
    20:00 +19°C° 0 mm 3 mps 756 mmHg 85%
    21:00 +19°C° 0 mm 3 mps 757 mmHg 87%
    22:00 +18°C° 0 mm 3 mps 757 mmHg 90%
    23:00 +18°C° 0 mm 2 mps 757 mmHg 92%

    Tomorrow, 28 January, Tuesday

    Time Temperature Precipitation Wind Pressure Humidity
    00:00 +18°C° 0 mm 2 mps 756 mmHg 92%
    01:00 +17°C° 0 mm 2 mps 756 mmHg 93%
    02:00 +17°C° 0 mm 2 mps 755 mmHg 94%
    03:00 +17°C° 0 mm 2 mps 755 mmHg 93%
    04:00 +18°C° 0 mm 1 mps 755 mmHg 93%
    05:00 +18°C° 0 mm 1 mps 754 mmHg 93%
    06:00 +20°C° 0 mm 1 mps 754 mmHg 86%
    07:00 +21°C° 0 mm 2 mps 754 mmHg 78%
    08:00 +24°C° 0 mm 3 mps 754 mmHg 70%
    09:00 +26°C° 0 mm 2 mps 754 mmHg 64%
    10:00 +29°C° 0 mm 2 mps 753 mmHg 57%
    11:00 +31°C° 0 mm 2 mps 753 mmHg 50%
    12:00 +30°C° 0 mm 3 mps 752 mmHg 53%
    13:00 +29°C° 0 mm 4 mps 752 mmHg 55%
    14:00 +28°C° 0 mm 5 mps 751 mmHg 58%
    15:00 +27°C° 0 mm 5 mps 751 mmHg 60%
    16:00 +26°C° 0 mm 5 mps 751 mmHg 62%
    17:00 +25°C° 0 mm 5 mps 751 mmHg 64%
    18:00 +22°C° 0 mm 4 mps 751 mmHg 72%
    19:00 +21°C° 0 mm 3 mps 752 mmHg 80%
    20:00 +19°C° 0 mm 2 mps 752 mmHg 89%
    21:00 +19°C° 0 mm 1 mps 753 mmHg 90%
    22:00 +19°C° 0 mm 1 mps 753 mmHg 92%
    23:00 +18°C° 0 mm 1 mps 753 mmHg 93%

    Day after tomorrow, 29 January, Wednesday

    Time Temperature Precipitation Wind Pressure Humidity
    00:00 +18°C° 0 mm 1 mps 753 mmHg 93%
    01:00 +18°C° 0 mm 1 mps 752 mmHg 93%
    02:00 +17°C° 0 mm 2 mps 752 mmHg 93%
    03:00 +17°C° 0 mm 2 mps 752 mmHg 93%
    04:00 +17°C° 0 mm 2 mps 752 mmHg 92%
    05:00 +17°C° 0 mm 3 mps 752 mmHg 91%
    06:00 +18°C° 0 mm 3 mps 752 mmHg 83%
    07:00 +20°C° 0 mm 3 mps 752 mmHg 75%
    08:00 +21°C° 0 mm 3 mps 753 mmHg 67%
    09:00 +24°C° 0 mm 3 mps 752 mmHg 60%
    10:00 +26°C° 0 mm 3 mps 752 mmHg 52%
    11:00 +28°C° 0 mm 3 mps 752 mmHg 45%
    12:00 +28°C° 0 mm 4 mps 751 mmHg 46%
    13:00 +28°C° 0 mm 5 mps 751 mmHg 48%
    14:00 +28°C° 0 mm 6 mps 750 mmHg 49%
    15:00 +27°C° 0 mm 6 mps 750 mmHg 55%
    16:00 +25°C° 0 mm 5 mps 750 mmHg 61%
    17:00 +23°C° 0 mm 5 mps 750 mmHg 67%
    18:00 +22°C° 0 mm 5 mps 750 mmHg 74%
    19:00 +21°C° 0 mm 4 mps 751 mmHg 81%
    20:00 +19°C° 0 mm 4 mps 751 mmHg 88%
    21:00 +19°C° 0.1 mm 3 mps 751 mmHg 88%
    22:00 +19°C° 0.1 mm 3 mps 751 mmHg 89%
    23:00 +19°C° 0.1 mm 3 mps 752 mmHg 89%

    30 January, Thursday

    Time Temperature Precipitation Wind Pressure Humidity
    00:00 +19°C° 0.1 mm 3 mps 751 mmHg 91%
    01:00 +19°C° 0.1 mm 3 mps 750 mmHg 92%
    02:00 +18°C° 0.1 mm 3 mps 750 mmHg 94%
    03:00 +18°C° 0.3 mm 3 mps 750 mmHg 94%
    04:00 +18°C° 0.3 mm 3 mps 749 mmHg 93%
    05:00 +18°C° 0.3 mm 3 mps 749 mmHg 93%
    06:00 +19°C° 0.5 mm 3 mps 749 mmHg 89%
    07:00 +20°C° 0.5 mm 3 mps 749 mmHg 85%
    08:00 +20°C° 0.5 mm 3 mps 749 mmHg 81%
    09:00 +19°C° 1.5 mm 5 mps 749 mmHg 83%
    10:00 +17°C° 1.5 mm 7 mps 749 mmHg 86%
    11:00 +16°C° 1.5 mm 9 mps 750 mmHg 89%
    12:00 +14°C° 1.9 mm 10 mps 750 mmHg 88%
    13:00 +13°C° 1.9 mm 10 mps 750 mmHg 87%
    14:00 +13°C° 1.9 mm 11 mps 751 mmHg 86%
    15:00 +13°C° 0.2 mm 9 mps 751 mmHg 83%
    16:00 +14°C° 0.2 mm 7 mps 752 mmHg 81%
    17:00 +14°C° 0.2 mm 5 mps 752 mmHg 78%
    18:00 +13°C° 0 mm 5 mps 753 mmHg 77%
    19:00 +13°C° 0 mm 5 mps 753 mmHg 76%
    20:00 +13°C° 0 mm 5 mps 753 mmHg 75%
    21:00 +12°C° 0 mm 4 mps 754 mmHg 76%
    22:00 +12°C° 0 mm 4 mps 754 mmHg 77%
    23:00 +12°C° 0 mm 4 mps 754 mmHg 78%

    31 January, Friday

    Time Temperature Precipitation Wind Pressure Humidity
    00:00 +12°C° 0 mm 4 mps 754 mmHg 75%
    01:00 +13°C° 0 mm 4 mps 754 mmHg 71%
    02:00 +13°C° 0 mm 4 mps 754 mmHg 68%
    03:00 +13°C° 0 mm 4 mps 754 mmHg 67%
    04:00 +13°C° 0 mm 4 mps 754 mmHg 67%
    05:00 +13°C° 0 mm 4 mps 754 mmHg 66%
    06:00 +14°C° 0.1 mm 4 mps 755 mmHg 64%
    07:00 +14°C° 0.1 mm 4 mps 755 mmHg 62%
    08:00 +15°C° 0.1 mm 4 mps 756 mmHg 59%
    09:00 +15°C° 0.1 mm 4 mps 756 mmHg 56%
    10:00 +17°C° 0.1 mm 3 mps 756 mmHg 52%
    11:00 +18°C° 0.1 mm 3 mps 757 mmHg 49%
    12:00 +18°C° 0 mm 4 mps 756 mmHg 51%
    13:00 +18°C° 0 mm 4 mps 756 mmHg 53%
    14:00 +17°C° 0 mm 5 mps 756 mmHg 56%
    15:00 +17°C° 0 mm 5 mps 756 mmHg 54%
    16:00 +17°C° 0 mm 5 mps 756 mmHg 52%
    17:00 +17°C° 0 mm 5 mps 757 mmHg 50%
    18:00 +17°C° 0 mm 4 mps 757 mmHg 55%
    19:00 +14°C° 0 mm 3 mps 758 mmHg 60%
    20:00 +13°C° 0 mm 3 mps 759 mmHg 64%
    21:00 +13°C° 0 mm 3 mps 759 mmHg 66%
    22:00 +14°C° 0 mm 2 mps 759 mmHg 68%
    23:00 +14°C° 0 mm 2 mps 760 mmHg 70%

    1 February, Saturday

    Time Temperature Precipitation Wind Pressure Humidity
    00:00 +14°C° 0 mm 2 mps 759 mmHg 70%
    01:00 +14°C° 0 mm 2 mps 759 mmHg 69%
    02:00 +13°C° 0 mm 3 mps 759 mmHg 69%
    03:00 +13°C° 0 mm 3 mps 760 mmHg 70%
    04:00 +12°C° 0 mm 3 mps 760 mmHg 71%
    05:00 +12°C° 0 mm 3 mps 760 mmHg 73%
    06:00 +13°C° 0 mm 3 mps 761 mmHg 71%
    07:00 +14°C° 0 mm 4 mps 761 mmHg 70%
    08:00 +15°C° 0 mm 5 mps 762 mmHg 69%
    09:00 +15°C° 0 mm 4 mps 762 mmHg 65%
    10:00 +17°C° 0 mm 4 mps 762 mmHg 61%
    11:00 +18°C° 0 mm 4 mps 762 mmHg 57%
    12:00 +18°C° 0 mm 4 mps 762 mmHg 55%
    13:00 +19°C° 0 mm 4 mps 762 mmHg 53%
    14:00 +19°C° 0 mm 4 mps 762 mmHg 52%
    15:00 +19°C° 0 mm 4 mps 762 mmHg 53%
    16:00 +19°C° 0 mm 4 mps 762 mmHg 54%
    17:00 +18°C° 0 mm 4 mps 762 mmHg 55%
    18:00 +17°C° 0 mm 4 mps 762 mmHg 60%
    19:00 +15°C° 0 mm 4 mps 763 mmHg 65%
    20:00 +14°C° 0 mm 3 mps 763 mmHg 70%
    21:00 +13°C° 0 mm 3 mps 764 mmHg 72%
    22:00 +13°C° 0 mm 3 mps 764 mmHg 75%
    23:00 +13°C° 0 mm 3 mps 764 mmHg 77%
    Show more